Location: Aschelberg
(48.3333°N, 15.2000°E)
Time: 07:22:21
(UTC+00:00)

Daily predictions for brighter satellites

Satellite Brightness Start Highest point End
(mag) Time Altitude Azimuth Time Altitude Azimuth Time Altitude Azimuth
Cosmos 2263 Rocket 4.3 19:44:05 10° NW 19:48:21 22° W 19:52:36 10° SSW
MetOp-B 4.2 19:47:29 10° SSE 19:52:50 86° WSW 19:58:14 10° NNW
Cosmos 1110 Rocket 4.0 19:48:21 10° S 19:53:28 63° ESE 19:58:38 10° NNE
Cosmos 1908 3.2 19:52:21 10° N 19:56:15 80° ENE 20:00:06 10° SSE
In-Cosmos 22 4.2 19:51:12 10° SSW 19:56:29 79° WNW 20:01:49 10° N
Cosmos 1544 Rocket 3.8 19:53:09 10° N 19:57:35 58° ENE 20:01:57 10° SSE
Cosmos 1626 2.4 19:56:05 10° SSE 19:59:38 47° E 20:03:12 10° NNE
FALCON 9 DEB 3.3 19:58:22 10° WSW 20:01:48 76° NNW 20:05:14 10° ENE
Cosmos 1455 Rocket 3.2 19:57:31 10° NNW 20:02:00 79° W 20:06:27 10° S
Cosmos 2100 Rocket 4.1 19:56:57 10° N 20:03:22 89° E 20:09:41 10° S
ARIANE 5 R/B 2.8 20:01:14 10° SSE 20:05:39 65° ENE 20:10:08 10° N
BREEZE-M DEB (TANK) 2.6 20:05:18 10° SW 20:07:43 54° SSE 20:12:42 10° ENE
ATLAS 3B R/B 2.8 20:01:36 10° SSW 20:07:52 51° ESE 20:14:21 10° NE
Cosmos 2333 4.3 20:05:18 10° S 20:10:56 59° ESE 20:16:33 10° NE
Cosmos 1461 4.0 20:07:34 10° NW 20:11:24 35° WSW 20:15:05 10° S
ATLAS CENTAUR R/B 1.6 20:09:54 10° NW 20:14:14 82° SW 20:18:22 13° SSE
Cosmos 2173 Rocket 4.2 20:09:56 10° N 20:16:21 80° W 20:22:43 10° S
Cosmos 405 3.2 20:13:34 10° N 20:16:59 55° ENE 20:19:49 14° SSE
Cosmos 2016 Rocket 4.0 20:14:12 10° N 20:20:19 76° E 20:26:21 10° SSE
SL-4 R/B 3.3 20:18:49 10° S 20:21:48 19° SE 20:24:39 10° E
Cosmos 2219 Rocket 2.4 20:18:14 10° S 20:23:43 53° ESE 20:29:14 10° NE
Meteor 2-5 Rocket 4.1 20:18:52 10° SSE 20:24:08 47° E 20:29:31 10° NNE
Cosmos 2333 Rocket 2.3 20:19:22 10° SSW 20:25:02 62° ESE 20:30:41 10° NNE
FALCON 9 DEB 3.0 20:24:14 10° SW 20:27:17 52° SSE 20:30:20 10° ENE
ERS-1 Rocket 3.0 20:24:08 12° SSE 20:28:49 82° ENE 20:33:53 10° NNW
Geosat 4.0 20:24:37 13° SSE 20:29:05 87° ENE 20:34:09 10° NNW
Cosmos 1025 Rocket 3.2 20:25:14 10° SSW 20:29:36 79° W 20:34:00 10° N
Cosmos 1844 4.3 20:25:23 10° NW 20:30:48 52° WSW 20:36:02 11° S
Lacrosse 5 rocket 1.3 20:27:19 10° WSW 20:30:59 70° NNW 20:34:34 10° NE
OPS 8737 4.4 20:27:22 10° SW 20:31:20 88° NW 20:34:27 10° NE
Cosmos 1536 Rocket 3.7 20:28:12 10° S 20:32:33 62° E 20:36:57 10° NNE
Spot 2 Rocket 3.8 20:28:38 10° S 20:33:39 65° WSW 20:38:44 10° NNW
Cosmos 2228 4.0 20:30:10 10° N 20:34:12 34° ENE 20:37:16 15° SE
USA 215 4.4 20:29:58 10° ENE 20:34:38 20° ESE 20:38:12 13° SSE
Cosmos 1725 Rocket 4.0 20:28:31 10° N 20:34:45 84° E 20:40:28 12° S
Cosmos 1331 Rocket 4.5 20:32:11 10° SSW 20:37:23 65° WNW 20:42:41 10° NNE
DNEPR-1 R/B 3.8 20:36:08 10° NW 20:40:18 58° SW 20:43:35 17° SSE
FALCON 9 DEB 2.8 20:39:48 10° WSW 20:42:55 88° SE 20:46:01 10° ENE
CARTOSAT-1 4.3 20:40:17 10° S 20:44:24 50° W 20:48:38 10° NNW
Cosmos 2237 Rocket 3.3 20:41:59 16° SE 20:45:02 25° ESE 20:49:31 10° NE
Terra 1.8 20:41:19 16° SSE 20:45:10 82° ENE 20:49:57 10° NNW
SL-14 R/B 3.4 20:41:49 10° SSW 20:45:50 78° W 20:49:52 10° N
Cosmos 2360 Rocket 3.3 20:42:45 10° SW 20:48:12 47° NW 20:53:40 10° NNE
FALCON 9 DEB 2.7 20:47:44 10° WSW 20:50:52 83° SSE 20:54:00 10° ENE
Cosmos 1953 4.4 20:48:02 10° NW 20:51:18 24° W 20:54:34 10° SW
Cosmos 2322 Rocket 4.3 20:47:40 10° WSW 20:52:39 30° NW 20:57:41 10° NNE
SPOT 5 3.2 20:48:16 13° S 20:52:43 64° WSW 20:57:32 10° NNW
Cosmos 1455 3.7 20:49:51 10° NNE 20:53:03 25° ENE 20:55:06 16° ESE
FALCON 9 DEB 2.9 20:50:21 10° WSW 20:53:28 82° NNW 20:56:35 10° ENE
Meteor 1-24 Rocket 3.6 20:51:24 13° S 20:56:07 69° E 21:01:38 10° NNE
H-2A R/B 3.5 20:52:57 10° NNE 20:57:00 59° ESE 20:59:53 18° S
Cosmos 1302 Rocket 4.1 20:53:25 10° SSW 20:58:41 80° WNW 21:03:58 10° NNE
Cosmos 1300 3.3 20:59:51 10° NNW 21:03:34 51° W 21:06:19 17° SSW
Resurs 01 Rocket 4.3 21:04:32 10° WSW 21:06:01 11° W 21:07:32 10° WNW
USA 267 4.1 21:03:52 10° E 21:10:08 51° NNE 21:16:26 10° NW
Cosmos 1340 4.1 21:08:25 10° SW 21:11:55 36° WNW 21:15:27 10° N
Cosmos 2322 4.3 21:10:12 10° SW 21:15:47 59° WNW 21:21:23 10° NNE
Cosmos 2278 Rocket 2.2 21:11:25 10° NNW 21:17:08 83° ENE 21:20:55 22° SSE
COSMOS 2428 2.9 21:11:39 10° SSW 21:17:24 79° WNW 21:23:11 10° NNE
GENESIS II 4.2 21:20:01 20° SSW 21:22:31 56° SE 21:26:22 10° NE
Cosmos 389 Rocket 2.4 21:19:18 10° NNW 21:22:44 77° W 21:24:17 30° S
NOSS 0 Rocket 4.0 21:17:59 13° SSW 21:23:25 64° ESE 21:29:35 10° NE
Cosmos 1726 Rocket 3.6 21:20:01 10° N 21:24:29 71° E 21:26:53 27° SSE
Cosmos 2058 Rocket 3.7 21:20:36 10° N 21:24:52 44° ENE 21:27:08 24° SE
Cosmos 1867 3.9 21:20:17 10° NW 21:25:40 57° WSW 21:28:54 23° S
Cosmos 968 Rocket 4.2 21:25:24 10° NW 21:30:14 43° WSW 21:33:29 19° SSW
Cosmos 1486 Rocket 4.5 21:30:43 10° NNW 21:35:47 52° WSW 21:38:52 22° S
SJ 16-02 3.2 21:33:56 10° N 21:37:26 22° NE 21:40:30 12° ESE
Meteor 2-10 Rocket 3.9 21:34:31 10° NNW 21:39:27 53° W 21:42:36 21° SSW
Cosmos 1606 Rocket 3.8 21:35:40 10° NNW 21:40:07 64° W 21:42:32 26° S
Cosmos 1992 Rocket 4.1 21:37:59 14° SSW 21:42:32 79° WNW 21:47:49 10° NNE
Cosmos 1943 Rocket 3.5 21:37:45 10° NNW 21:42:42 32° NE 21:47:23 11° ESE
Spot 4 4.0 21:41:10 27° SSE 21:43:45 67° ENE 21:48:30 10° N
Cosmos 1892 Rocket 3.5 21:43:59 28° S 21:46:15 79° E 21:50:43 10° NNE
Cosmos 1891 Rocket 4.5 21:43:05 10° N 21:49:17 85° E 21:53:08 25° S
Cosmos 1346 Rocket 3.6 21:47:04 17° SW 21:49:53 47° WNW 21:53:48 10° N
Meteor 1-4 Rocket 3.7 21:48:13 10° N 21:51:21 31° ENE 21:52:29 25° ESE
Cosmos 1354 Rocket 4.1 21:46:48 10° NNW 21:52:09 75° WSW 21:55:00 28° S
ATLAS CENTAUR R/B 3.9 21:50:45 10° W 21:52:31 12° WSW 21:54:18 10° SW
Cosmos 1513 Rocket 4.4 21:46:37 10° N 21:52:43 87° E 21:56:24 26° S
Cosmos 1980 3.7 21:51:14 17° SSW 21:55:41 87° ESE 22:01:25 10° NNE
Cosmos 1441 Rocket 3.4 21:54:42 37° SSE 21:55:53 53° E 21:59:37 10° NNE
BREEZE-M DEB (TANK) 3.0 21:48:17 10° SW 21:57:28 53° SSE 22:00:33 10° E
ATLAS 3B R/B 3.7 21:52:20 10° WSW 21:58:40 46° NW 22:05:15 10° NE
ALOS 2 3.0 21:57:54 28° SE 21:59:57 54° ENE 22:04:15 10° N
NOSS 3-1 (C) 4.1 21:59:23 25° SE 22:00:53 28° ESE 22:05:58 10° NE
SL-4 R/B 1.7 21:56:55 10° WSW 22:00:59 75° SSE 22:04:46 10° ENE
FALCON 9 DEB 4.2 22:00:04 10° W 22:03:04 41° NNW 22:06:05 10° ENE
Cosmos 724 4.5 22:01:05 10° NW 22:07:18 76° NE 22:11:24 22° SE
Cosmos 2219 Rocket 3.9 22:02:54 10° WSW 22:07:57 32° NW 22:13:01 10° NNE
Cosmos 1607 4.3 22:03:24 10° NW 22:09:38 54° WSW 22:12:53 27° S
Cosmos 2333 Rocket 4.2 22:04:49 10° WSW 22:09:44 28° NW 22:14:40 10° NNE
Cosmos 1703 3.2 22:08:43 39° S 22:10:06 80° E 22:14:05 10° NNE
Lacrosse 5 rocket 3.6 22:07:34 10° WNW 22:10:33 23° NNW 22:13:31 10° NE
Cosmos 1626 Rocket 3.9 22:12:18 34° SSE 22:13:56 54° E 22:18:16 10° NNE
USA 215 3.2 22:11:56 10° ENE 22:18:28 67° SE 22:24:58 10° SW
Meteor 2-1 Rocket 4.3 22:13:52 10° NNW 22:19:21 67° W 22:22:14 29° S
Cosmos 2346 Rocket 4.4 22:16:23 26° S 22:20:03 89° W 22:26:17 10° N
Cosmos 1602 Rocket 4.1 22:20:35 33° SE 22:22:09 47° E 22:26:28 10° NNE
Terra 4.2 22:21:13 10° WSW 22:23:32 13° W 22:25:52 10° WNW
COBE Rocket 4.0 22:22:10 32° S 22:24:30 72° WSW 22:29:25 10° NNW
SL-16 R/B 2.4 22:23:55 30° S 22:26:28 54° ESE 22:32:00 10° NE
Cosmos 1455 3.7 22:25:20 10° NNW 22:28:36 27° W 22:29:59 22° SW
Cosmos 2237 Rocket 2.6 22:23:45 13° SW 22:28:41 60° WNW 22:34:16 10° NNE
Cosmos 1464 Rocket 4.4 22:24:31 10° NNW 22:30:44 56° W 22:34:26 25° SSW
Cosmos 1184 Rocket 4.1 22:29:49 24° WSW 22:31:00 33° WNW 22:34:00 10° N
Cosmos-2242 4.0 22:27:27 10° N 22:31:36 38° ENE 22:33:34 25° SE
Cosmos 1328 3.6 22:31:00 44° S 22:32:11 88° E 22:36:06 10° N
Cosmos 2369 Rocket 3.2 22:31:26 10° NNW 22:36:54 43° NE 22:41:39 13° ESE
Cosmos 1634 Rocket 4.3 22:33:35 10° N 22:39:53 64° ENE 22:43:33 26° SSE
GEOS 3 Rocket 4.0 22:38:08 31° S 22:40:22 50° SW 22:45:35 10° NW
ATLAS CENTAUR R/B 3.5 22:40:45 17° SW 22:45:05 82° SE 22:59:10 10° NE
PSLV R/B 4.4 22:46:34 10° NNE 22:50:40 38° E 22:52:04 30° SE
USA 32 4.0 22:45:42 10° N 22:50:59 83° W 22:53:23 33° S
Aureole 3 3.6 22:47:37 10° N 22:51:29 73° E 22:53:19 36° SSE
NOSS 2-3 (D) 3.9 22:51:07 38° SSE 22:52:00 44° ESE 22:56:29 10° NE
USA 267 3.2 22:46:54 13° SE 22:52:57 81° SW 22:59:32 10° NW
Cosmos 1763 Rocket 4.4 22:55:46 26° SE 22:57:32 33° ESE 23:02:06 10° NE
Cosmos 1812 Rocket 3.6 22:53:30 10° NNW 22:57:51 71° W 22:59:21 40° S
Cosmos 2278 Rocket 4.0 22:56:56 10° WNW 23:00:29 17° W 23:02:45 14° SW
BREEZE-M DEB (TANK) 3.4 22:57:23 10° W 23:01:14 80° N 23:13:49 10° E
Cosmos 2297 3.8 22:58:08 10° NW 23:03:41 60° WSW 23:06:10 32° S
Thor Agena Rocket 3.5 23:02:06 10° NNE 23:07:23 79° ESE 23:09:46 33° S
SAR-Lupe-2 3.8 23:04:58 10° N 23:08:33 61° WNW 23:09:33 41° SW
NOSS 2-3 (C) 3.6 23:07:21 40° S 23:08:43 65° SE 23:13:31 10° NE
NOSS 8 (E) 4.3 23:12:07 54° SE 23:12:07 54° SE 23:15:00 10° NE
Resurs 1-4 Rocket 4.3 23:12:00 10° NE 23:15:04 15° E 23:18:06 10° ESE
SJ 16-02 1.8 23:12:02 10° NNW 23:16:15 46° WSW 23:17:28 36° SSW
FALCON 9 DEB 4.0 23:12:58 10° WNW 23:16:19 50° NNE 23:19:39 10° E
EP 2 4.4 23:19:35 75° SSE 23:19:43 77° SE 23:22:46 10° NE
Meteor 1-11 4.5 23:19:57 27° SSW 23:22:58 61° WNW 23:28:31 10° N
Exosat Rocket 4.2 23:20:17 28° S 23:23:23 51° ESE 23:28:29 10° NE
GP-B 3.5 23:19:58 10° N 23:24:18 53° W 23:26:01 33° SW
Meteor 1-27 4.2 23:18:59 10° NNW 23:24:32 72° W 23:27:14 31° S
Meteor 1-4 Rocket 4.4 23:23:44 10° NW 23:26:06 18° W 23:26:36 17° W
In-Cosmos 22 Rocket 4.2 23:23:39 31° S 23:26:21 74° E 23:31:49 10° NNE
Cosmos 1943 Rocket 2.5 23:21:21 10° NW 23:26:40 49° WSW 23:28:53 31° SSW
Cosmos 1825 Rocket 3.5 23:25:14 38° S 23:26:55 90° NNW 23:31:24 10° N
Cosmos 1932 4.5 23:24:25 10° NW 23:30:42 81° NE 23:36:16 13° SE
X-37B 2.8 23:33:13 16° ESE 23:33:13 16° ESE 23:33:59 10° ESE
Cosmos 1892 2.6 23:30:16 45° SSW 23:31:25 87° WNW 23:35:19 10° N
Cosmos 2142 Rocket 4.4 23:28:20 10° NNW 23:34:29 77° W 23:37:52 28° S
Cosmos 540 Rocket 4.3 23:32:30 26° SSE 23:34:40 38° ESE 23:39:23 10° NE
Helios 1A 3.8 23:32:32 21° SE 23:34:59 45° ENE 23:39:00 10° N
USA 305 4.4 23:35:05 21° SE 23:35:05 21° SE 23:38:16 10° E
Cosmos 1437 Rocket 3.4 23:31:45 10° N 23:35:32 48° ENE 23:37:15 27° SE
ALOS 2 4.4 23:35:17 16° WSW 23:36:37 18° W 23:39:38 10° NW
Cosmos 1869 3.4 23:32:45 10° NNW 23:36:51 67° W 23:38:08 41° SSW
CZ-2D R/B 3.8 23:33:09 10° NE 23:37:08 22° E 23:40:22 13° SE
Cosmos 1943 3.6 23:36:45 29° S 23:39:21 51° ESE 23:44:50 10° NE
Cosmos 990 Rocket 3.9 23:35:11 10° NNW 23:40:22 70° WSW 23:42:50 31° S
SL-4 R/B 2.6 23:36:55 10° W 23:40:43 51° N 23:44:15 10° ENE
Lacrosse 4 Rocket 3.2 23:37:34 10° NNW 23:41:14 29° NE 23:44:48 10° ESE
EO 1 Del DPAF 3.1 23:37:47 10° NNE 23:41:32 83° ESE 23:42:38 44° S
USA 229 DEB 3.6 23:38:45 24° SW 23:42:54 85° SE 23:49:49 10° NE
USA 229 3.6 23:38:53 24° SW 23:43:00 85° SE 23:49:55 10° NE
NOSS 8 (F) 4.5 23:43:55 40° WSW 23:44:48 61° NW 23:47:44 10° NE
Cosmos 841 Rocket 4.2 23:44:06 26° SSE 23:46:29 41° ESE 23:51:18 10° NE
DELTA 2 R/B (1) 4.4 23:47:09 29° S 23:47:22 29° SSE 23:52:04 10° ESE
Cosmos 1603 3.8 23:46:12 29° S 23:49:02 63° ESE 23:54:38 10° NNE
Lacrosse 5 rocket 3.7 23:47:40 10° NW 23:50:32 22° N 23:53:27 10° ENE
NOSS 3-1 (C) 3.7 23:46:44 16° WSW 23:51:10 61° NW 23:57:37 10° NE
Cosmos 1953 Rocket 3.5 23:50:42 35° SSW 23:52:28 75° W 23:56:55 10° N
SL-16 R/B 3.5 23:46:42 10° SE 23:52:32 45° ENE 23:58:22 10° N
Cosmos 1242 Rocket 3.6 23:49:52 10° N 23:53:18 41° ENE 23:55:13 22° SE
Cosmos 1408 2.9 23:53:09 38° SW 23:54:16 56° WNW 23:57:55 10° N
FALCON 9 DEB 4.3 23:51:49 10° WNW 23:54:47 40° NNE 23:57:44 10° E
Cosmos 1825 2.1 23:54:28 41° S 23:55:42 84° E 23:59:29 10° N
